ARSAT 1

Last updated on Mon Oct 14 2024 00:02:39 GMT+0000 (Coordinated Universal Time)

1 40272U 14062B 24287.46380700 -.00000261 00000+0 00000+0 0 9997 2 40272 0.0284 294.5773 0002076 269.3246 273.8061 1.00271897 36488
UTC large
Height (km)
Speed (km/s)
/
Latitude / Longitude
Inclination (degrees)
Orbital Period (minutes)
Azimuth
Elevation
Range (km)
Doppler Factor

Next 0 passes for location: London (51.5072 / 0.1276)

Sorry there are no passes over London.